Weather History for KMSO - June, 2013

Change the Weather History Date:

Thursday, June 13, 2013

  Actual Average Record
Temperature  
Mean Temperature 54 °F 60 °F  
Max Temperature 61 °F 74 °F 100 °F (1918)
Min Temperature 47 °F 46 °F 31 °F (1952)
Degree Days  
Heating Degree Days 11 6  
Month to date heating degree days 66 89  
Since 1 June heating degree days 66 89  
Since 1 July heating degree days 6848 7213  
Cooling Degree Days 0 1  
Month to date cooling degree days 3 13  
Year to date cooling degree days 7 19  
Since 1 June cooling degree days 3 13  
Growing Degree Days 4 (Base 50)    
Moisture  
Dew Point 46 °F    
Average Humidity 71    
Maximum Humidity 93    
Minimum Humidity 49    
Precipitation  
Precipitation 0.30 in 0.07 in 1.20 in (1901)
Month to date precipitation 0.52 1.05  
Year to date precipitation 4.64 6.83  
Snow  
Snow 0.00 in - - ()
Month to date snowfall 0.0  
Year to date snowfall 27.4  
Since 1 July snowfall 48.5  
Snow Depth 0.00 in    
Sea Level Pressure  
Sea Level Pressure 30.04 in    
Wind  
Wind Speed 7 mph (SSE)    
Max Wind Speed 16 mph    
Max Gust Speed 20 mph    
Visibility 10 miles    
Events Rain    
T = Trace of Precipitation, MM = Missing Value Source: NWS Daily Summary

Daily Weather History Graph

Daily Weather History Graph

Search for Another Location

Airport or City:

Trip Planner

Search our weather history database for the weather conditions in past years. The results will help you decide how hot, cold, wet, or windy it might be!

Date:

Astronomy

Jun. 13, 2013 Rise Set
Actual Time 5:41 AM MDT 9:32 PM MDT
Civil Twilight 5:01 AM MDT 10:11 PM MDT
Nautical Twilight 4:07 AM MDT 11:05 PM MDT
Astronomical Twilight 2:48 AM MDT 12:25 AM MDT
Moon 10:37 AM MDT (6/13) No Moon Set
Length of Visible Light 17h 10m
Length of Day
15h 50m
Waxing Crescent, 22% of the Moon is Illuminated
Jun 13
Waxing Crescent
Jun 16
First Quarter
Jun 23
Full
Jun 29
Last Quarter
Jul 8
New

Hourly Weather History & Observations

Time (MDT) Temp. Dew Point Humidity Pressure Visibility Wind Dir Wind Speed Gust Speed Precip Events Conditions
12:53 AM 61.0 °F 41.0 °F 48% 29.95 in 10.0 mi NW 11.5 mph - N/A   Overcast
1:53 AM 54.0 °F 48.0 °F 80% 30.00 in 5.0 mi NNW 5.8 mph - 0.06 in Rain Light Rain
2:53 AM 53.1 °F 48.9 °F 86% 30.00 in 10.0 mi NW 6.9 mph - 0.01 in   Overcast
3:53 AM 51.1 °F 48.9 °F 92% 30.03 in 6.0 mi NW 9.2 mph - 0.06 in Rain Light Rain
4:53 AM 51.1 °F 48.0 °F 89% 30.03 in 10.0 mi NNE 3.5 mph - 0.06 in   Overcast
5:53 AM 50.0 °F 48.0 °F 93% 30.02 in 10.0 mi SW 6.9 mph - N/A   Overcast
6:53 AM 50.0 °F 46.9 °F 89% 30.05 in 10.0 mi NE 3.5 mph - 0.00 in Rain Light Rain
7:53 AM 52.0 °F 46.9 °F 83% 30.01 in 10.0 mi ESE 5.8 mph - 0.01 in   Overcast
8:53 AM 51.1 °F 48.0 °F 89% 30.03 in 10.0 mi SE 5.8 mph - N/A   Overcast
9:53 AM 53.1 °F 46.9 °F 80% 30.04 in 10.0 mi SSE 11.5 mph - N/A   Overcast
10:32 AM 53.6 °F 46.4 °F 77% 30.06 in 10.0 mi South 12.7 mph - N/A   Overcast
10:53 AM 53.1 °F 46.0 °F 77% 30.05 in 10.0 mi South 10.4 mph - N/A   Overcast
11:53 AM 52.0 °F 46.0 °F 80% 30.06 in 10.0 mi SSE 11.5 mph - 0.02 in Rain Light Rain
12:53 PM 55.9 °F 46.0 °F 69% 30.03 in 10.0 mi SSE 9.2 mph - 0.00 in   Overcast
1:53 PM 55.9 °F 44.1 °F 64% 30.05 in 10.0 mi South 12.7 mph - 0.00 in Rain Light Rain
2:53 PM 57.9 °F 45.0 °F 62% 30.04 in 10.0 mi South 9.2 mph - 0.00 in   Mostly Cloudy
3:53 PM 57.9 °F 41.0 °F 53% 30.02 in 10.0 mi SE 5.8 mph - N/A   Scattered Clouds
4:53 PM 59.0 °F 41.0 °F 51% 30.02 in 10.0 mi Variable 3.5 mph - N/A   Scattered Clouds
5:53 PM 57.0 °F 46.9 °F 69% 30.03 in 10.0 mi SSW 4.6 mph - 0.01 in   Scattered Clouds
6:53 PM 54.0 °F 46.9 °F 77% 30.04 in 10.0 mi SE 10.4 mph - N/A   Overcast
7:53 PM 54.0 °F 43.0 °F 66% 30.06 in 10.0 mi WSW 4.6 mph - 0.00 in Rain Light Rain
8:53 PM 52.0 °F 44.1 °F 74% 30.06 in 10.0 mi SE 4.6 mph - 0.00 in   Scattered Clouds
9:53 PM 52.0 °F 44.1 °F 74% 30.06 in 10.0 mi ESE 10.4 mph - N/A   Overcast
10:53 PM 51.1 °F 44.1 °F 77% 30.07 in 10.0 mi SE 9.2 mph - 0.00 in   Overcast
11:53 PM 50.0 °F 42.1 °F 74% 30.08 in 10.0 mi East 6.9 mph - N/A   Scattered Clouds